[TLELIST] Archives

 

[list_settings.list_name] Current TLEs

October 7th 2008 PDT

HST 1 20580U 90037B 08280.22948746 .00000330 00000-0 12667-4 0 2359 2 20580 028.4701 318.9573 0003862 125.3505 234.7443 15.00413240811675 ISS (ZARYA) 1 25544U 98067A 08279.50236111 .00033985 00000-0 25738-3 0 3872 2 25544 051.6414 170.7266 0004018 179.2775 186.7924 15.72046613565898 CXO 1 25867U 99040B 08278.62500000 +.00000225 +00000-0 +10000-3 0 02499 2 25867 064.2855 077.4307 7033794 277.7252 357.0383 00.37805708004048 ____________________________________________________________________ These 2-Line ...Continue Reading

[list_settings.list_name] Current TLEs

October 6th 2008 PDT

HST 1 20580U 90037B 08278.56655018 .00000320 00000-0 11928-4 0 2347 2 20580 028.4700 329.8021 0003809 107.4774 252.6231 15.00412614811424 ISS (ZARYA) 1 25544U 98067A 08278.31140205 .00013725 00000-0 10518-3 0 3801 2 25544 051.6417 176.8192 0006277 177.2604 284.1627 15.72432189565704 CXO 1 25867U 99040B 08278.62500000 +.00000225 +00000-0 +10000-3 0 02499 2 25867 064.2855 077.4307 7033794 277.7252 357.0383 00.37805708004048 ____________________________________________________________________ These 2-Line ...Continue Reading

[list_settings.list_name] Current TLEs

October 4th 2008 PDT

HST 1 20580U 90037B 08277.50226956 .00000307 00000-0 10933-4 0 2334 2 20580 028.4700 336.7425 0003762 096.2929 263.8093 15.00412194811269 ISS (ZARYA) 1 25544U 98067A 08277.80392192 .00012852 00000-0 98868-4 0 3757 2 25544 051.6420 179.4180 0006193 178.3414 288.4249 15.72413417565623 CXO 1 25867U 99040B 08276.00000000 +.00000191 +00000-0 +10000-3 0 02485 2 25867 064.2747 077.4861 7027060 277.7611 359.6647 00.37805077004030 ____________________________________________________________________ These 2-Line ...Continue Reading

[list_settings.list_name] Current TLEs

October 3rd 2008 PDT

HST 1 20580U 90037B 08275.57325945 +.00000293 +00000-0 +98270-5 0 02411 2 20580 028.4702 349.3232 0003700 075.8086 284.2915 15.00411546810973 ISS (ZARYA) 1 25544U 98067A 08277.23754235 .00012532 00000-0 96586-4 0 3709 2 25544 051.6415 182.3193 0006204 174.9590 323.5578 15.72396358565534 CXO 1 25867U 99040B 08276.00000000 +.00000191 +00000-0 +10000-3 0 02485 2 25867 064.2747 077.4861 7027060 277.7611 359.6647 00.37805077004030 ____________________________________________________________________ These 2-Line ...Continue Reading

[list_settings.list_name] Current TLEs

October 2nd 2008 PDT

HST 1 20580U 90037B 08276.23843564 .00000294 00000-0 98755-5 0 2326 2 20580 028.4702 344.9861 0003691 082.9373 277.1636 15.00411721811077 ISS (ZARYA) 1 25544U 98067A 08275.49699074 .00011494 00000-0 89156-4 0 3615 2 25544 051.6422 191.2341 0006331 168.4558 190.9518 15.72347356565252 CXO 1 25867U 99040B 08276.00000000 +.00000191 +00000-0 +10000-3 0 02485 2 25867 064.2747 077.4861 7027060 277.7611 359.6647 00.37805077004030 ____________________________________________________________________ These 2-Line ...Continue Reading

[list_settings.list_name] Current TLEs

October 1st 2008 PDT

HST 1 20580U 90037B 08274.64201229 .00000294 00000-0 98733-5 0 2310 2 20580 028.4702 355.3964 0003635 065.7233 294.3735 15.00411302810838 ISS (ZARYA) 1 25544U 98067A 08274.37085845 .00011385 00000-0 88464-4 0 3559 2 25544 051.6418 197.0027 0006340 163.7598 296.9909 15.72319307565081 CXO 1 25867U 99040B 08270.66666667 +.00000228 +00000-0 +10000-3 0 02478 2 25867 064.2430 077.6110 7016652 277.8455 353.4918 00.37806103004012 ____________________________________________________________________ These 2-Line ...Continue Reading

[list_settings.list_name] Current TLEs

September 30th 2008 PDT

HST 1 20580U 90037B 08273.57773003 .00000280 00000-0 87807-5 0 2309 2 20580 028.4691 002.3412 0003517 053.6707 306.4203 15.00410887810677 ISS (ZARYA) 1 25544U 98067A 08272.90420333 +.00010917 +00000-0 +85142-4 0 03450 2 25544 051.6414 204.5141 0006617 160.1678 273.3090 15.72282783564856 CXO 1 25867U 99040B 08270.66666667 +.00000228 +00000-0 +10000-3 0 02478 2 25867 064.2430 077.6110 7016652 277.8455 353.4918 00.37806103004012 ____________________________________________________________________ These 2-Line ...Continue Reading

[list_settings.list_name] Current TLEs

September 29th 2008 PDT

HST 1 20580U 90037B 08271.71523428 .00000290 00000-0 95583-5 0 2296 2 20580 028.4689 014.4871 0003515 033.4608 326.6201 15.00410474810394 ISS (ZARYA) 1 25544U 98067A 08272.34455367 .00010807 00000-0 84382-4 0 3423 2 25544 051.6407 207.3813 0006508 156.9965 346.6163 15.72269220564762 CXO 1 25867U 99040B 08270.66666667 +.00000228 +00000-0 +10000-3 0 02478 2 25867 064.2430 077.6110 7016652 277.8455 353.4918 00.37806103004012 ____________________________________________________________________ These 2-Line ...Continue Reading

[list_settings.list_name] Current TLEs

September 28th 2008 PDT

HST 1 20580U 90037B 08271.71523428 .00000290 00000-0 95583-5 0 2296 2 20580 028.4689 014.4871 0003515 033.4608 326.6201 15.00410474810394 ISS (ZARYA) 1 25544U 98067A 08271.88763355 .00010051 00000-0 78847-4 0 3385 2 25544 051.6408 209.7206 0006714 156.7779 278.8499 15.72255456564691 CXO 1 25867U 99040B 08270.66666667 +.00000228 +00000-0 +10000-3 0 02478 2 25867 064.2430 077.6110 7016652 277.8455 353.4918 00.37806103004012 ____________________________________________________________________ These 2-Line ...Continue Reading

[list_settings.list_name] Current TLEs

September 27th 2008 PDT

HST 1 20580U 90037B 08270.65095037 .00000294 00000-0 98748-5 0 2287 2 20580 028.4689 021.4285 0003467 021.2034 338.8698 15.00410235810238 ISS (ZARYA) 1 25544U 98067A 08270.42983877 .00008879 00000-0 70303-4 0 3325 2 25544 051.6415 217.1880 0006717 149.9628 308.8878 15.72220234564466 CXO 1 25867U 99040B 08268.04166667 +.00000177 +00000-0 +10000-3 0 02464 2 25867 064.2383 077.7067 7009631 277.8757 356.0996 00.37800448004005 ____________________________________________________________________ These 2-Line ...Continue Reading
  • This mailing list is a public mailing list - anyone may join or leave, at any time.
  • This mailing list is announce-only.

International Space Station (ISS) / Hubble Space Telescope (HST) / Chandra X-Ray Observatory Orbital Data via EMAIL

Privacy Policy:

Private list